GOES 1 [-] 1 08366U 75100A 12038.79005253 -.00000236 00000-0 10000-3 0 9021 2 08366 14.0267 339.4856 0001408 8.0560 351.9990 1.00288450132634 GOES 2 [-] 1 10061U 77048A 12039.31820150 -.00000113 00000-0 10000-3 0 541 2 10061 14.6829 347.9919 0013985 283.8658 76.0242 0.99394496 71404 GOES 3 [P] 1 10953U 78062A 12037.88920313 -.00000108 00000-0 10000-3 0 7170 2 10953 14.5624 351.6696 0005186 42.2507 317.8308 1.00265468 76340 GOES 4 [-] 1 11964U 80074A 12035.16830284 -.00000265 00000-0 10000-3 0 2792 2 11964 15.0720 355.3545 0035556 324.1475 35.6479 0.99233741 75574 GOES 5 [-] 1 12472U 81049A 12038.82767129 -.00000279 00000-0 10000-3 0 1977 2 12472 14.4763 5.5702 0002429 49.5579 310.4974 1.00247982 70398 GOES 6 [-] 1 14050U 83041A 12038.85618649 -.00000265 00000-0 10000-3 0 2033 2 14050 14.3311 10.4990 0003931 32.2755 327.7938 1.00279130163493 GOES 7 [-] 1 17561U 87022A 12037.67617508 .00000097 00000-0 10000-3 0 3457 2 17561 13.6956 27.2156 0005609 52.9042 131.9050 1.00308974 74582 GOES 8 [-] 1 23051U 94022A 12039.06634986 .00000018 00000-0 10000-3 0 124 2 23051 8.0354 60.7128 0006000 216.8861 143.2074 0.98903167 72277 GOES 9 [P] 1 23581U 95025A 12037.33445481 -.00000247 00000-0 10000-3 0 2884 2 23581 7.5758 58.9198 0005821 339.3936 20.7042 0.98803118 60958 GOES 10 [-] 1 24786U 97019A 12038.49094516 -.00000150 00000-0 10000-3 0 2225 2 24786 5.8026 62.0276 0007254 121.6508 238.5827 0.99099260 54091 GOES 11 [+] 1 26352U 00022A 12038.65023707 -.00000213 00000-0 00000+0 0 6809 2 26352 0.9920 137.7843 0001335 343.9248 238.2826 0.99045361 43081 GOES 12 [B] 1 26871U 01031A 12039.21093595 -.00000287 00000-0 10000-3 0 4467 2 26871 1.9662 74.4367 0002016 288.4899 150.6546 1.00282733 38697 GOES 13 [+] 1 29155U 06018A 12039.37064463 -.00000253 00000-0 10000-3 0 9428 2 29155 0.4183 80.7629 0001905 317.1510 158.8124 1.00269057 20949 GOES 14 [S] 1 35491U 09033A 12039.18146576 -.00000089 00000-0 00000+0 0 3227 2 35491 0.0894 247.6662 0003236 191.8656 18.0029 1.00271848 9615 GOES 15 [S] 1 36411U 10008A 12039.18183238 .00000086 00000-0 00000+0 0 9312 2 36411 0.0285 269.8755 0000666 324.7201 193.4948 1.00263378 7118